Weather History for KMCB - October, 2012

Change the Weather History Date:

Friday, October 19, 2012

  Actual Average Record
Temperature  
Mean Temperature 60 °F -  
Max Temperature 75 °F 76 °F 89 °F (1993)
Min Temperature 46 °F 51 °F 31 °F (1989)
Degree Days  
Heating Degree Days 4    
Growing Degree Days 10 (Base 50)    
Moisture  
Dew Point 42 °F    
Average Humidity 63    
Maximum Humidity 96    
Minimum Humidity 21    
Precipitation  
Precipitation 0.00 in - - ()
Sea Level Pressure  
Sea Level Pressure 29.91 in    
Wind  
Wind Speed 3 mph (WNW)    
Max Wind Speed 17 mph    
Max Gust Speed 24 mph    
Visibility 10 miles    
Events      
Averages and records for this station are not official NWS values.
T = Trace of Precipitation, MM = Missing Value Source: NWS Daily Summary

Daily Weather History Graph

Daily Weather History Graph

Search for Another Location

Airport or City:

Trip Planner

Search our weather history database for the weather conditions in past years. The results will help you decide how hot, cold, wet, or windy it might be!

Date:

Astronomy

Oct. 19, 2012 Rise Set
Actual Time 7:07 AM CDT 6:25 PM CDT
Civil Twilight 6:43 AM CDT 6:49 PM CDT
Nautical Twilight 6:15 AM CDT 7:17 PM CDT
Astronomical Twilight 5:46 AM CDT 7:45 PM CDT
Moon 11:37 AM CDT (10/19) 10:16 PM CDT (10/19)
Length of Visible Light 12h 06m
Length of Day
11h 17m
Waxing Crescent, 24% of the Moon is Illuminated
Oct 19
Waxing Crescent
Oct 21
First Quarter
Oct 29
Full
Nov 6
Last Quarter
Nov 13
New

Hourly Weather History & Observations

Time (CDT) Temp. Dew Point Humidity Pressure Visibility Wind Dir Wind Speed Gust Speed Precip Events Conditions
12:53 AM 51.1 °F 48.0 °F 89% 29.92 in 10.0 mi Calm Calm - N/A   Clear
1:53 AM 50.0 °F 48.0 °F 93% 29.92 in 10.0 mi Calm Calm - N/A   Clear
2:53 AM 48.9 °F 46.9 °F 93% 29.91 in 10.0 mi Calm Calm - N/A   Clear
3:53 AM 48.9 °F 46.9 °F 93% 29.91 in 10.0 mi Calm Calm - N/A   Clear
4:53 AM 52.0 °F 44.1 °F 74% 29.92 in 10.0 mi NW 4.6 mph - N/A   Clear
5:53 AM 48.0 °F 45.0 °F 89% 29.92 in 10.0 mi Calm Calm - N/A   Clear
6:53 AM 46.0 °F 45.0 °F 96% 29.93 in 10.0 mi Calm Calm - N/A   Clear
7:53 AM 46.9 °F 45.0 °F 93% 29.93 in 10.0 mi Calm Calm - N/A   Clear
8:53 AM 57.9 °F 45.0 °F 62% 29.94 in 10.0 mi West 3.5 mph - N/A   Clear
9:53 AM 64.9 °F 42.1 °F 43% 29.95 in 10.0 mi West 9.2 mph - N/A   Clear
10:53 AM 70.0 °F 41.0 °F 35% 29.95 in 10.0 mi West 8.1 mph - N/A   Clear
11:53 AM 73.0 °F 32.0 °F 22% 29.94 in 10.0 mi West 11.5 mph 23.0 mph N/A   Clear
12:53 PM 73.9 °F 34.0 °F 23% 29.92 in 10.0 mi West 11.5 mph - N/A   Clear
1:53 PM 75.0 °F 33.1 °F 22% 29.90 in 10.0 mi WNW 17.3 mph 24.2 mph N/A   Clear
2:53 PM 75.0 °F 33.1 °F 22% 29.88 in 10.0 mi West 9.2 mph 23.0 mph N/A   Clear
3:53 PM 75.0 °F 32.0 °F 21% 29.87 in 10.0 mi West 16.1 mph 21.9 mph N/A   Clear
4:53 PM 73.9 °F 35.1 °F 24% 29.86 in 10.0 mi West 8.1 mph - N/A   Clear
5:53 PM 70.0 °F 37.9 °F 31% 29.86 in 10.0 mi West 3.5 mph - N/A   Clear
6:53 PM 60.1 °F 48.0 °F 64% 29.88 in 10.0 mi Calm Calm - N/A   Clear
7:53 PM 55.9 °F 48.0 °F 75% 29.89 in 10.0 mi Calm Calm - N/A   Clear
8:53 PM 55.0 °F 48.0 °F 77% 29.91 in 10.0 mi Calm Calm - N/A   Clear
9:53 PM 51.1 °F 46.9 °F 86% 29.92 in 10.0 mi Calm Calm - N/A   Clear
10:53 PM 50.0 °F 46.0 °F 86% 29.92 in 10.0 mi Calm Calm - N/A   Clear
11:53 PM 48.9 °F 46.0 °F 90% 29.92 in 10.0 mi Calm Calm - N/A   Clear